TimeEDT,TemperatureF,Dew PointF,Humidity,Sea Level PressureIn,VisibilityMPH,Wind Direction,Wind SpeedMPH,Gust SpeedMPH,PrecipitationIn,Events,Conditions,WindDirDegrees,DateUTC
12:15 AM,57.2,48.2,72,30.18,10.0,SW,8.1,-,N/A,,Clear,220,2012-10-23 04:15:00
12:35 AM,59.0,48.2,67,30.18,10.0,SW,8.1,-,N/A,,Clear,230,2012-10-23 04:35:00
1:15 AM,55.4,48.2,77,30.16,10.0,South,6.9,-,N/A,,Clear,190,2012-10-23 05:15:00
1:40 AM,55.4,48.2,77,30.16,10.0,SSW,9.2,-,N/A,,Clear,200,2012-10-23 05:40:00
2:00 AM,55.4,48.2,77,30.16,10.0,SSW,8.1,-,N/A,,Clear,200,2012-10-23 06:00:00
2:20 AM,55.4,48.2,77,30.16,10.0,SSW,8.1,-,N/A,,Clear,200,2012-10-23 06:20:00
2:40 AM,55.4,50.0,82,30.16,10.0,SSW,9.2,-,N/A,,Clear,210,2012-10-23 06:40:00
3:05 AM,57.2,50.0,77,30.17,10.0,SW,8.1,-,N/A,,Clear,220,2012-10-23 07:05:00
3:45 AM,55.4,50.0,82,30.16,10.0,SW,9.2,-,N/A,,Clear,220,2012-10-23 07:45:00
4:10 AM,55.4,48.2,77,30.16,10.0,SSW,8.1,-,N/A,,Clear,200,2012-10-23 08:10:00
4:30 AM,53.6,50.0,88,30.16,10.0,SSW,8.1,-,N/A,,Clear,210,2012-10-23 08:30:00
4:50 AM,53.6,50.0,88,30.16,10.0,SSW,9.2,-,N/A,,Scattered Clouds,210,2012-10-23 08:50:00
5:10 AM,55.4,50.0,82,30.15,10.0,SSW,8.1,-,N/A,,Mostly Cloudy,210,2012-10-23 09:10:00
5:35 AM,55.4,50.0,82,30.16,10.0,SW,6.9,-,N/A,,Mostly Cloudy,220,2012-10-23 09:35:00
5:55 AM,55.4,50.0,82,30.16,10.0,SW,8.1,-,N/A,,Mostly Cloudy,230,2012-10-23 09:55:00
6:15 AM,57.2,50.0,77,30.16,10.0,WSW,9.2,-,N/A,,Mostly Cloudy,240,2012-10-23 10:15:00
6:35 AM,57.2,50.0,77,30.16,10.0,SW,9.2,-,N/A,,Mostly Cloudy,230,2012-10-23 10:35:00
7:40 AM,57.2,50.0,77,30.17,10.0,SW,8.1,-,N/A,,Mostly Cloudy,230,2012-10-23 11:40:00
8:00 AM,59.0,50.0,72,30.18,10.0,SW,9.2,-,N/A,,Mostly Cloudy,230,2012-10-23 12:00:00
8:45 AM,59.0,50.0,72,30.18,10.0,SW,8.1,-,N/A,,Overcast,230,2012-10-23 12:45:00
9:05 AM,59.0,50.0,72,30.18,10.0,SW,9.2,-,N/A,,Mostly Cloudy,230,2012-10-23 13:05:00
9:25 AM,60.8,50.0,68,30.18,10.0,WSW,9.2,-,N/A,,Overcast,240,2012-10-23 13:25:00
9:50 AM,60.8,50.0,68,30.18,10.0,SW,10.4,16.1,N/A,,Mostly Cloudy,230,2012-10-23 13:50:00
10:10 AM,60.8,50.0,68,30.17,10.0,SW,8.1,-,N/A,,Scattered Clouds,230,2012-10-23 14:10:00
11:15 AM,68.0,48.2,49,30.17,10.0,SW,9.2,18.4,N/A,,Clear,230,2012-10-23 15:15:00
11:35 AM,66.2,50.0,56,30.17,10.0,SW,8.1,-,N/A,,Clear,230,2012-10-23 15:35:00
11:55 AM,64.4,50.0,59,30.18,10.0,WSW,8.1,18.4,N/A,,Scattered Clouds,240,2012-10-23 15:55:00
12:15 PM,64.4,50.0,59,30.18,10.0,WSW,6.9,-,N/A,,Scattered Clouds,250,2012-10-23 16:15:00
12:40 PM,62.6,48.2,59,30.18,10.0,WSW,5.8,-,N/A,,Mostly Cloudy,250,2012-10-23 16:40:00
1:00 PM,62.6,48.2,59,30.17,10.0,WSW,5.8,-,N/A,,Mostly Cloudy,240,2012-10-23 17:00:00
1:20 PM,64.4,48.2,56,30.15,10.0,SW,8.1,-,N/A,,Scattered Clouds,220,2012-10-23 17:20:00
1:40 PM,68.0,46.4,46,30.15,10.0,WSW,9.2,-,N/A,,Clear,240,2012-10-23 17:40:00
2:05 PM,69.8,46.4,43,30.14,10.0,WSW,12.7,18.4,N/A,,Clear,250,2012-10-23 18:05:00
2:25 PM,69.8,46.4,43,30.14,10.0,West,10.4,19.6,N/A,,Scattered Clouds,260,2012-10-23 18:25:00
2:45 PM,68.0,48.2,49,30.13,10.0,West,10.4,18.4,N/A,,Scattered Clouds,270,2012-10-23 18:45:00
3:05 PM,69.8,48.2,46,30.13,10.0,WSW,11.5,23.0,N/A,,Mostly Cloudy,240,2012-10-23 19:05:00
3:30 PM,68.0,50.0,52,30.13,10.0,WSW,11.5,23.0,N/A,,Scattered Clouds,240,2012-10-23 19:30:00
3:50 PM,68.0,50.0,52,30.13,10.0,WSW,13.8,24.2,N/A,,Scattered Clouds,250,2012-10-23 19:50:00
4:10 PM,69.8,50.0,49,30.13,10.0,WSW,10.4,21.9,N/A,,Scattered Clouds,250,2012-10-23 20:10:00
4:30 PM,68.0,50.0,52,30.13,10.0,WSW,8.1,-,N/A,,Clear,240,2012-10-23 20:30:00
4:55 PM,68.0,50.0,52,30.13,10.0,WSW,8.1,-,N/A,,Clear,250,2012-10-23 20:55:00
5:15 PM,66.2,50.0,56,30.13,10.0,WSW,6.9,17.3,N/A,,Clear,240,2012-10-23 21:15:00
5:35 PM,64.4,50.0,59,30.13,10.0,WSW,6.9,-,N/A,,Clear,240,2012-10-23 21:35:00
5:55 PM,64.4,50.0,59,30.13,10.0,WSW,9.2,-,N/A,,Clear,240,2012-10-23 21:55:00
6:20 PM,64.4,50.0,59,30.13,10.0,WSW,8.1,-,N/A,,Clear,250,2012-10-23 22:20:00
6:40 PM,62.6,50.0,63,30.14,10.0,WSW,6.9,-,N/A,,Clear,240,2012-10-23 22:40:00
7:00 PM,62.6,50.0,63,30.15,10.0,SW,6.9,-,N/A,,Clear,230,2012-10-23 23:00:00
7:20 PM,62.6,50.0,63,30.15,10.0,SW,10.4,-,N/A,,Clear,220,2012-10-23 23:20:00
8:05 PM,60.8,50.0,68,30.15,10.0,SSW,8.1,-,N/A,,Clear,210,2012-10-24 00:05:00
8:45 PM,60.8,50.0,68,30.15,10.0,SW,9.2,-,N/A,,Clear,220,2012-10-24 00:45:00
9:10 PM,60.8,50.0,68,30.15,10.0,SSW,9.2,-,N/A,,Clear,210,2012-10-24 01:10:00
9:30 PM,60.8,50.0,68,30.16,10.0,SW,6.9,-,N/A,,Clear,220,2012-10-24 01:30:00
9:50 PM,60.8,50.0,68,30.16,10.0,SW,8.1,-,N/A,,Clear,220,2012-10-24 01:50:00
10:10 PM,60.8,50.0,68,30.16,10.0,WSW,6.9,-,N/A,,Clear,240,2012-10-24 02:10:00
10:35 PM,60.8,50.0,68,30.16,10.0,WSW,8.1,-,N/A,,Clear,240,2012-10-24 02:35:00
10:55 PM,59.0,50.0,72,30.16,10.0,WSW,5.8,-,N/A,,Clear,240,2012-10-24 02:55:00
11:15 PM,59.0,50.0,72,30.16,10.0,SW,6.9,-,N/A,,Clear,230,2012-10-24 03:15:00
11:35 PM,59.0,50.0,72,30.16,10.0,WSW,6.9,-,N/A,,Clear,240,2012-10-24 03:35:00